Flag for USA

Past Weather in 41°55'59"N, 91°40'27"W, USA — Yesterday and Last 2 Weeks

Now
85 °F

Passing clouds.


Feels Like: 89 °F
Forecast: 90 / 70 °F
Wind: 5 mph from Southwest

Location: Cedar Rapids Municipal Airport

Current Time: Jul 6, 2020 at 12:44:42 pm

Latest Report: Jul 6, 2020 at 11:52 am


Visibility: 10 mi

Pressure: 30.00 "Hg

Humidity: 61%

Dew Point: 70 °F

Location of 41°55'59"N, 91°40'27"WLocation

Past Weather in 41°55'59"N, 91°40'27"W — Graph

°F

41°55'59"N, 91°40'27"W Temperature Yesterday

Maximum temperature yesterday: 88 °F (at 3:52 pm)
Minimum temperature yesterday: 67 °F (at 3:52 am)
Average temperature yesterday: 78 °F

High & Low Weather Summary for the Past Weeks

 TemperatureHumidityPressure
High88 °F (Jul 4, 2:52 pm)100% (Jun 22, 1:40 am)30.06 "Hg (Jun 22, 1:40 am)
Low55 °F (Jun 22, 10:52 pm)38% (Jun 25, 3:52 pm)29.70 "Hg (Jun 28, 12:52 pm)
Average74 °F84%29.88 "Hg
* Reported Jun 21 10:52 am — Jul 6 10:52 am, 41°55'59"N, 91°40'27"W. Weather by CustomWeather, © 2020

Note: Actual official high and low records may vary slightly from our data, if they occured in-between our weather recording intervals... More about our weather records

41°55'59"N, 91°40'27"W Weather History for the Previous 24 Hours

Scroll right to see more
 ConditionsComfort  
Time TempWeatherWind HumidityBarometerVisibility
10:52 am
Mon, Jul 6
85 °FSunny.5 mph65%30.02 "Hg10 mi
9:52 am82 °FSunny.6 mph70%30.01 "Hg10 mi
8:52 am77 °FSunny.5 mph77%30.01 "Hg10 mi
7:52 am77 °FSunny.5 mph85%30.01 "Hg9 mi
5:52 am69 °FFog.3 mph100%29.97 "Hg6 mi
4:59 am69 °FFog.3 mph100%29.98 "Hg6 mi
4:35 am69 °FFog.No wind100%29.97 "Hg1 mi
3:52 am69 °FFog.No wind100%29.94 "Hg3 mi
2:52 am70 °FFog.No wind100%29.95 "Hg5 mi
1:52 am71 °FClear.No wind100%29.96 "Hg7 mi
12:52 am71 °FClear.3 mph96%29.97 "Hg8 mi
11:52 pm
Sun, Jul 5
73 °FClear.No wind90%29.97 "Hg10 mi
10:52 pm76 °FClear.No wind82%29.96 "Hg10 mi
9:52 pm76 °FClear.No wind85%29.95 "Hg10 mi
8:52 pm79 °FClear.No wind79%29.93 "Hg9 mi
7:52 pm85 °FSunny.No wind59%29.92 "Hg10 mi
6:52 pm86 °FSunny.No wind59%29.92 "Hg9 mi
5:52 pm86 °FSunny.6 mph61%29.92 "Hg9 mi
4:52 pm87 °FSunny.3 mph57%29.93 "Hg10 mi
3:52 pm88 °FSunny.5 mph52%29.95 "Hg10 mi
2:52 pm87 °FSunny.6 mph55%29.96 "Hg10 mi
1:52 pm87 °FSunny.6 mph53%29.96 "Hg10 mi
12:52 pm86 °FSunny.No wind53%29.98 "Hg10 mi
Weather by CustomWeather, © 2020

See weather overview